Location: Huppendorf
(49.9333°N, 11.1500°E)
Time: 15:25:34
(UTC+00:00)

USA 234 - Pass Details

Date: 27 February 2020
Orbit: 1101 x 1107 km, 123.0° (Epoch: 26 March)

Event Time Altitude Azimuth Distance (km) Brightness Sun altitude
Exits shadow 20:42:40 60° 318° (NW) 1,252 3.6 -36.0°
Drops below altitude 10° 20:47:56 10° 303° (WNW) 2,966 6.3 -36.7°
Sets 20:50:25 0° 302° (WNW) 3,926 7.1 -37.0°
